Regional Weather Roundup
Issued by NWS Upton, NY

Current Version | Previous Version | Text Only | Print | Product List | Glossary On
Versions: 1 2 3 4 5 6 7 8 9 10 11 12 13 14 15 16 17 18 19 20 21 22 23 24 25 26 27 28 29 30 31 32 33 34 35 36 37 38 39 40 41 42 43 44 45 46 47 48 49 50
512 ASUS41 KOKX 230605 RWROKX Regional Weather Roundup National Weather Service New York NY 100 AM EST FRI FEB 23 2018 Note: "FAIR" indicates few or no clouds below 12,000 feet with no significant weather and/or obstructions to visibility. NYZ071-072-176-178-NJZ106-104-230700- New York City Metro Area CITY SKY/WX TMP DP RH WIND PRES REMARKS Central Park NOT AVBL Bronx Bot Gard N/A 36 32 87 N10 30.70R WCI 28 Bronx Lehman C NOT AVBL LaGuardia Arpt CLOUDY 38 33 82 NE15 30.67S WCI 29 Queens College NOT AVBL Kennedy Intl CLOUDY 37 34 89 NE10 30.69R WCI 30 Breezy Point NOT AVBL Brooklyn Coll NOT AVBL Staten Island NOT AVBL Newark/Liberty CLOUDY 38 34 85 NE10 30.67R WCI 31 Teterboro CLOUDY 37 33 85 NE9G18 30.67R WCI 30 $$ NYZ177-179-078>081-230700- Long Island New York CITY SKY/WX TMP DP RH WIND PRES REMARKS Jones Beach NOT AVBL Wantagh NOT AVBL Hempstead N/A 36 34 93 N3 30.71R Matinecock Pt NOT AVBL Farmingdale CLOUDY 36 33 89 NE9 30.68R WCI 29 MacArthur/ISP CLOUDY 36 33 89 NE9 30.67S WCI 29 Shirley CLOUDY 35 33 92 VRB6 30.68S WCI 30 Mt Sinai Harb NOT AVBL Westhampton CLOUDY 36 32 85 NE14 30.69S WCI 27 East Hampton CLOUDY 34 30 86 NE5 30.68R WCI 30 Southold NOT AVBL Montauk N/A 36 32 85 NE8 30.69S WCI 30 $$ NYZ052-065-067-230700- Hudson Valley CITY SKY/WX TMP DP RH WIND PRES REMARKS White Plains MOCLDY 34 30 85 NE8 30.66S WCI 27 Larchmont Harb NOT AVBL Croton On Huds NOT AVBL Somers NOT AVBL Brewster NOT AVBL Newburgh CLOUDY 32 32 100 VRB6 30.67S WCI 26 Montgomery CLOUDY 31 29 92 NE8 30.66F WCI 23 Otisville NOT AVBL Warwick NOT AVBL Suffern NOT AVBL Poughkeepsie CLOUDY 30 28 92 N7 30.69S WCI 23 Albany MOCLDY 23 19 85 N3 30.71S $$ NJZ001-105-106-008-010-013-015-019>022-104-230700- New Jersey CITY SKY/WX TMP DP RH WIND PRES REMARKS Newark/Liberty CLOUDY 38 34 85 NE10 30.67R WCI 31 Teterboro CLOUDY 37 33 85 NE9G18 30.67R WCI 30 Caldwell CLOUDY 36 33 89 NE6 30.68R WCI 31 Somerville CLOUDY 37 35 92 NE6 30.65R WCI 32 Linden CLOUDY 38 33 82 SE9 30.68R WCI 31 Perth Amboy NOT AVBL Sussex CLOUDY 32 31 96 NE7 30.67R WCI 26 Andover N/A 33 31 92 NE7 30.65S WCI 27 Trenton CLOUDY 39 35 86 E8 30.64S WCI 33 Millville CLOUDY 39 35 86 NE10 30.60F WCI 32 Atlantic City CLOUDY 40 35 83 NE12 30.62S WCI 33 Wrightstown CLOUDY N/A N/A N/A E9 30.63 Toms River CLOUDY 38 35 89 NE10 30.66R WCI 31 Belmar CLOUDY 37 35 92 NE9 30.66R WCI 30 $$ PAZ047>061-062-071-230700- Eastern Pennsylvania CITY SKY/WX TMP DP RH WIND PRES REMARKS Philadelphia CLOUDY 38 36 92 NE10 30.64F WCI 31 Allentown CLOUDY 37 33 85 NE8 30.64S WCI 31 Scranton CLOUDY 36 31 82 E5 30.61S WCI 32 $$ CTZ002-004>006-009-010-012-RIZ004-006-007-MAZ004-011-015-230700- Southern New England In CT CITY SKY/WX TMP DP RH WIND PRES REMARKS Bradley Intl MOCLDY 31 30 96 CALM 30.69F Hartford CLOUDY 33 31 92 N5 30.71S WCI 29 Danbury CLOUDY 33 31 92 E3 30.68S Wtrbury/Oxford CLOUDY 31 30 96 NE6 30.67R WCI 25 Norwalk Harbor NOT AVBL Bridgeport CLOUDY 36 31 82 NE10 30.69R WCI 28 Meriden CLOUDY 33 31 92 N6 30.70R WCI 28 New Haven CLOUDY 36 32 85 N6 30.70R WCI 31 Chester CLOUDY 34 32 93 NE5 30.68R WCI 30 Groton CLOUDY 35 30 82 NE6 30.69S WCI 30 Willimantic CLOUDY 35 31 85 CALM 30.69S In RI CITY SKY/WX TMP DP RH WIND PRES REMARKS Providence CLOUDY 34 32 92 NE6 30.69F WCI 29 Block Island CLOUDY 34 31 88 NE12 30.68F WCI 25 Westerly CLOUDY 35 33 92 N3 30.70S In MA CITY SKY/WX TMP DP RH WIND PRES REMARKS Boston MOCLDY 34 30 85 N3 30.69F Worcester CLOUDY 28 27 96 CALM 30.63F Westfield MOCLDY 27 27 100 CALM 30.68S Provincetown CLOUDY 36 31 82 NE7 30.69F WCI 30 Nantucket CLOUDY 36 34 92 NE12 30.67S WCI 28 $$ ANZ330-335-338-340-345-350-353-355-230700- Coastal Marine Observations STATION/POSITION TIME SKY/WX TEMP WIND PRES VSBY WAVE AIR SEA DIR/SP/G HT/PER (UTC) (F) (DEG/KT/KT) (MB) (MI) (FT/S) NY Harb Entrance 0550 38 41 60/ 14/ 17 1038.8 5/ 7 20 S Fire Island 0550 39 42 60/ 17/ 19 1037.6 6/ 7 23 SSW Montauk P 0550 38 43 40/ 16/ 17 1038.5 5/ 6 15 E Barnegat Li 0530 42 N/A 7/ 7 Hudson Canyon 0550 42 46 50/ 19/ 23 1035.5 9/ 8 Kings Point 0548 38 80/ 4/ 10 1040.1 Execution Rocks NOT AVBL Western LI Sound NOT AVBL Central LI Sound 0545 36 80/ 12/ 14 N/A 2 Robbins Reef 0548 37 50/ 13/ 15 1039.5 $$ >>>>>>>>>>>>>>>>>>>>>>>>>>>> KEY <<<<<<<<<<<<<<<<<<<<<<<<<<< > < > SKY/WX - Sky Condition/Present Weather < > TMP - Temperature in Fahrenheit < > DP - Dew Point in Fahrenheit < > RH - Relative Humidity in Percent < > WIND - Direction (from) and Speed in MPH < > PRES - Mean Sea Level Pressure (inches of Hg) < > WCI - Wind Chill Index < > VSB - Visibility in Miles < > HX - Heat Index < > TC - Temperature in Celsius < > VRB - Varibale Wind Direction < > < >>>>>>>>>>>>>>>>>>>>>>>>>>>> KEY <<<<<<<<<<<<<<<<<<<<<<<<<<<

USA.gov is the U.S. government's official web portal to all federal, state and local government web resources and services.